User: anonymous   Login
Location: Ahausen
(50.4985°N, 8.2722°E)
Time: 05:06:28
(UTC+00:00)
Language:

Cosmos 1627 Rocket - Orbit

View from above orbital plane
View from above orbital plane
View from above satellite
View from above satellite

Ground track
Ground track

The orbit data is extracted from the following two-line orbital elements,

1 15506U 85011B   20337.54320362  .00000022  00000-0  65193-5 0  9995
2 15506  82.9206  80.1715 0037677 112.4448 259.1537 13.76206424799037
Epoch (UTC): 02 December 2020 13:02:12
Eccentricity: 0.0037677
inclination: 82.9206°
perigee height: 949 km
apogee height: 1005 km
right ascension of ascending node: 80.1715°
argument of perigee: 112.4448°
revolutions per day: 13.76206424
mean anomaly at epoch: 259.1537°
orbit number at epoch: 79903

The dashed part of the orbit path shows where the satellite is in the earth's shadow,  

DLR